Regional Weather Roundup
Issued by NWS

Home | Current Version | Previous Version | Graphics & Text | Print | Product List | Glossary Off
Versions: 1 2 3 4 5 6 7 8 9 10 11 12 13 14 15 16 17 18 19 20 21 22 23 24 25 26 27 28 29 30 31 32 33 34 35 36 37 38 39 40 41 42 43 44 45 46 47 48 49 50

000
ASUS43 KMPX 260810
RWRMN
WEATHER ROUNDUP FOR MINNESOTA
NATIONAL WEATHER SERVICE TWIN CITIES/CHANHASSEN MN
300 AM CDT SAT MAY 26 2018


NOTE: "FAIR" INDICATES FEW OR NO CLOUDS BELOW 12,000 FEET WITH NO
SIGNIFICANT WEATHER AND/OR OBSTRUCTIONS TO VISIBILITY. N/A MEANS
CURRENT SKY AND/OR WEATHER CONDITIONS ARE NOT AVAILABLE.

MNZ060>063-068>070-260900-
   Twin Cities Metro

CITY           SKY/WX    TMP DP  RH WIND       PRES   REMARKS
TWIN CITIES    FAIR      69  61  75 SW7       29.69F
ST PAUL        FAIR      63  59  87 S5        29.69F
CRYSTAL        FAIR      68  59  73 S5        29.67F
BLAINE         FAIR      68  61  77 SW6       29.68S
LAKEVILLE      FAIR      66  61  82 S6        29.70S
EDEN PRAIRIE   FAIR      64  60  87 SW6       29.69S
SOUTH ST PAUL  FAIR      67  59  76 S3        29.69F
LAKE ELMO      FAIR      63  59  88 S6        29.70S
$$
MNZ001>005-007-008-013>017-022>024-027-028-260900-
   Northwest Minnesota

CITY           SKY/WX    TMP DP  RH WIND       PRES   REMARKS
BEMIDJI        FAIR      62  54  74 CALM      29.63S
HALLOCK        FAIR      61  55  82 W5        29.60R
ROSEAU         FAIR      64  57  77 SW8       29.58S
WARROAD        FAIR      63  59  88 SW7       29.58S
THIEF RVR FALL FAIR      63  55  75 CALM      29.63R
CROOKSTON      FAIR      61  52  72 W3        29.62S
FOSSTON        FAIR      59  52  77 S3        29.63S
DETROIT LAKES  FAIR      63  57  82 CALM      29.67R
MOORHEAD       FAIR      64  50  59 SW3       29.64S
PARK RAPIDS    FAIR      64  54  69 CALM      29.64S
MAHNOMEN       FAIR      62  52  68 S6        29.63S
$$
MNZ006-009>011-018-025>026-260900-
   North Central Minnesota

CITY           SKY/WX    TMP DP  RH WIND       PRES   REMARKS
BAUDETTE         N/A     62  55  77 MISG      29.58S
INTL FALLS     FAIR      57  57 100 CALM      29.59F
WASKISH        FAIR      57  54  88 CALM      29.60S
BIG FORK       FAIR      61  55  82 CALM      29.62R
GRAND RAPIDS   FAIR      61  57  87 S6        29.64F
ORR            LGT RAIN  59  57  94 CALM      29.58F
COOK           FAIR      57  55  94 CALM      29.62S
WALKER         FAIR      58  55  89 CALM      29.63F
$$
MNZ012-019>021-037-260900-
   Northeast Minnesota

CITY           SKY/WX    TMP DP  RH WIND       PRES   REMARKS
DULUTH         LGT RAIN  67  59  75 W8        29.66R
ELY            FAIR      63  57  82 SE6       29.65F
HIBBING        FAIR      57  56  96 CALM      29.62R
EVELETH        FAIR      61  55  82 CALM      29.63F
DULUTH HARBOR  FAIR      66  63  88 SW10      29.63R
TWO HARBORS    FAIR      66  57  72 W9        29.62R
SILVER BAY     FAIR      59  59 100 W3        29.62R
GRAND MARAIS     N/A     41  39  93 NE6       29.60F
G MARAIS ARPRT FAIR      55  52  88 N3        29.65F
$$
MNZ029>031-032-039>041-046>048-054>057-064-260900-
   West Central Minnesota

CITY           SKY/WX    TMP DP  RH WIND       PRES   REMARKS
FERGUS FALLS   FAIR      66  52  59 CALM      29.62S
WHEATON        CLEAR     72  55  56 W6        29.68S
MORRIS         CLEAR     68  52  56 W7        29.67R
ALEXANDRIA     FAIR      66  55  67 SW8       29.69S
ELBOW LAKE     FAIR      65  51  60 SW6       29.68R
WADENA         FAIR      64  54  68 W8        29.65S
GLENWOOD       FAIR      63  59  88 SW8       29.66F
APPLETON       CLEAR     66  55  68 SW6       29.68S
BENSON         CLEAR     63  57  82 CALM      29.69S
ORTONVILLE     CLEAR     72  54  53 W7        29.68F
MADISON        CLEAR     66  55  68 SW5       29.69F
WILLMAR        FAIR      63  57  82 SW3       29.71S
$$
MNZ033>034-036-042>043-049>051-058-059-260900-
   Central Minnesota

CITY           SKY/WX    TMP DP  RH WIND       PRES   REMARKS
ST CLOUD       FAIR      63  57  81 MISG      29.66F
SAUK CENTRE    FAIR      64  59  83 S6        29.67F
PAYNESVILLE    FAIR      62  60  93 W3        29.68F
AITKIN         FAIR      66  55  68 SW3       29.62F
PINE RIVER     FAIR      55  52  88 CALM      29.68S
BRAINERD       FAIR      68  56  65 SW3       29.64S
STAPLES        FAIR      64  54  68 CALM      29.65R
LONG PRAIRIE   FAIR      63  55  77 S7        29.67S
LITTLE FALLS   FAIR      63  59  88 S3        29.65F
LITCHFIELD     FAIR      66  61  82 CALM      29.69F
BUFFALO        FAIR      65  58  77 S5        29.70S
MAPLE LAKE     FAIR      66  60  80 S6        29.69F
HUTCHINSON     FAIR      65  61  85 CALM      29.70F
$$
MNZ037-044-045-052-053-260900-
   East Central Minnesota

CITY           SKY/WX    TMP DP  RH WIND       PRES   REMARKS
PRINCETON      FAIR      66  57  72 S7        29.67S
MORA           FAIR      64  59  82 CALM      29.67F
CAMBRIDGE      FAIR      68  55  64 S7        29.67F
RUSH CITY      FAIR      64  57  78 S5        29.67S
MOOSE LAKE     CLOUDY    59  57  94 CALM      29.64S
HINCKLEY       FAIR      63  61  94 S3        29.66S
CLOQUET        FAIR      68  55  64 W6        29.66R
MCGREGOR       FAIR      64  57  77 CALM      29.65R
$$
MNZ071>073-080-081-089-090-097-098-260900-
   Southwest Minnesota

CITY           SKY/WX    TMP DP  RH WIND       PRES   REMARKS
MONTEVIDEO     CLEAR     70  55  60 W6        29.69S
CANBY          CLEAR     70  54  56 W5        29.72S
MARSHALL       CLEAR     66  57  72 NW3       29.72S
REDWOOD FALLS  CLEAR     63  60  90 SW3       29.69S
OLIVIA         CLEAR     64  59  82 S6        29.69S
PIPESTONE      CLEAR     61  57  88 SW3       29.76F
WINDOM         CLEAR     66  48  52 S5        29.74S
WORTHINGTON    CLEAR     66  57  72 SW9       29.76F
JACKSON        CLEAR     64  59  82 SW9       29.76S
TRACY          CLEAR     69  59  71 SW8       29.72F
SLAYTON        LGT RAIN  66  57  72 SW5       29.77S
$$
MNZ065>067-074>077-082>085-091>093-260900-
   South Central Minnesota

CITY           SKY/WX    TMP DP  RH WIND       PRES   REMARKS
MANKATO        FAIR      65  61  87 S8        29.72F
NEW ULM        CLEAR     63  57  82 S8        29.70F
ST JAMES       CLEAR     66  59  77 S7        29.72F
FAIRMONT       CLEAR     67  61  81 SW9       29.73F
GLENCOE        FAIR      67  60  78 S6        29.69F
FARIBAULT      FAIR      66  63  88 CALM      29.72S
OWATONNA       FAIR      66  61  82 S14       29.73S
WASECA         FAIR      63  59  88 S5        29.74S
ALBERT LEA     FAIR      64  59  82 S8        29.74F
$$
MNZ078>079-086>088-094>096-260900-
   Southeast Minnesota

CITY           SKY/WX    TMP DP  RH WIND       PRES   REMARKS
ROCHESTER      FAIR      63  60  90 S14       29.74S
RED WING       FAIR      63  59  88 CALM      29.69F
STANTON        FAIR      66  61  84 S6        29.70S
DODGE CENTER   FAIR      64  59  82 S8        29.73F
WINONA         FAIR      63  59  88 CALM      29.71S
AUSTIN         FAIR      63  59  88 S9        29.74S
PRESTON        FAIR      62  58  88 SW8       29.75S
$$
ABBREVIATIONS USED IN REMARKS
   TC - TEMPERATURES IN CELSIUS
  WCI - WIND CHILL INDEX
   HX - HEAT INDEX
  VSB - VISIBILITY
$$




USA.gov is the U.S. government's official web portal to all federal, state and local government web resources and services.